BAW486 EGLL-LEBL

Flight info

Callsign BAW486
Flight time N/A
Altitude 27000
Route MAXIT Y803 MID L151 SITET UN859 LGL/N0447F330 UN859 SOPIL DCT BALAN DCT EVPOK DCT NARAK DCT GAI DCT LOMRA DCT ROCAN DCT PUMAL
Aircraft A320/M-SDE3FGHIRWY/LB1

Departure

Time 2026-05-04 17:48
Airport London Heathrow Airport (EGLL)

Arrival

Time N/A
Airport Josep Tarradellas Barcelona-El Prat Airport (LEBL)
Time Latitude Longitude Altitude Speed Heading
2026-05-04 17:21 51.47188 -0.48589 86 ft 0 kts 269°
2026-05-04 17:38 51.47188 -0.48571 88 ft 4 kts 269°
2026-05-04 17:38 51.47188 -0.48531 86 ft 1 kts 269°
2026-05-04 17:38 51.47190 -0.48495 86 ft 4 kts 240°
2026-05-04 17:38 51.47208 -0.48473 91 ft 3 kts 181°
2026-05-04 17:39 51.47227 -0.48473 86 ft 0 kts 179°
2026-05-04 17:42 51.47217 -0.48473 90 ft 3 kts 179°
2026-05-04 17:42 51.47191 -0.48473 90 ft 5 kts 179°
2026-05-04 17:42 51.47137 -0.48472 86 ft 12 kts 179°
2026-05-04 17:43 51.47049 -0.48471 86 ft 14 kts 179°
2026-05-04 17:43 51.46946 -0.48470 87 ft 16 kts 179°
2026-05-04 17:43 51.46856 -0.48469 86 ft 6 kts 180°
2026-05-04 17:43 51.46844 -0.48469 86 ft 0 kts 180°
2026-05-04 17:45 51.46843 -0.48469 86 ft 1 kts 180°
2026-05-04 17:45 51.46817 -0.48469 86 ft 7 kts 180°
2026-05-04 17:46 51.46761 -0.48470 86 ft 9 kts 180°
2026-05-04 17:46 51.46692 -0.48468 86 ft 11 kts 179°
2026-05-04 17:46 51.46610 -0.48464 88 ft 13 kts 179°
2026-05-04 17:46 51.46514 -0.48464 90 ft 15 kts 181°
2026-05-04 17:47 51.46475 -0.48393 87 ft 6 kts 82°
2026-05-04 17:47 51.46479 -0.48291 88 ft 26 kts 89°
2026-05-04 17:47 51.46483 -0.47626 85 ft 92 kts 90°
2026-05-04 17:47 51.46488 -0.46309 88 ft 141 kts 90°
2026-05-04 17:48 51.46494 -0.44582 417 ft 156 kts 89°
2026-05-04 17:48 51.46491 -0.42837 1116 ft 158 kts 88°
2026-05-04 17:48 51.46339 -0.40978 1471 ft 183 kts 107°
2026-05-04 17:48 51.45690 -0.39064 1764 ft 208 kts 121°
2026-05-04 17:49 51.44534 -0.37479 2060 ft 237 kts 157°
2026-05-04 17:49 51.42887 -0.36710 2525 ft 259 kts 162°
2026-05-04 17:49 51.41106 -0.35950 3331 ft 268 kts 170°
2026-05-04 17:49 51.39239 -0.36166 4251 ft 273 kts 197°
2026-05-04 17:50 51.37532 -0.37391 5243 ft 272 kts 206°
2026-05-04 17:50 51.35827 -0.38743 6209 ft 273 kts 206°
2026-05-04 17:50 51.34108 -0.40107 7108 ft 274 kts 206°
2026-05-04 17:50 51.32389 -0.41469 7933 ft 278 kts 206°
2026-05-04 17:51 51.30654 -0.42837 8776 ft 281 kts 206°
2026-05-04 17:51 51.28907 -0.44205 9665 ft 282 kts 205°
2026-05-04 17:51 51.27123 -0.45597 10309 ft 292 kts 205°
2026-05-04 17:51 51.25224 -0.47093 10528 ft 316 kts 206°
2026-05-04 17:52 51.23185 -0.48715 10737 ft 336 kts 206°
2026-05-04 17:52 51.21048 -0.50408 11291 ft 344 kts 206°
2026-05-04 17:52 51.18885 -0.52098 11931 ft 349 kts 206°
2026-05-04 17:52 51.16714 -0.53778 12550 ft 353 kts 206°
2026-05-04 17:53 51.14471 -0.55505 13188 ft 358 kts 206°
2026-05-04 17:53 51.12211 -0.57239 13837 ft 362 kts 206°
2026-05-04 17:53 51.09943 -0.58975 14415 ft 366 kts 204°
2026-05-04 17:53 51.07512 -0.60280 15001 ft 369 kts 192°
2026-05-04 17:54 51.04989 -0.60712 15571 ft 371 kts 179°
2026-05-04 17:54 51.02419 -0.60251 16157 ft 372 kts 167°
2026-05-04 17:54 50.99953 -0.58919 16737 ft 375 kts 157°
2026-05-04 17:54 50.97539 -0.57307 17358 ft 376 kts 157°
2026-05-04 17:55 50.95138 -0.55710 17957 ft 379 kts 157°
2026-05-04 17:55 50.92687 -0.54090 18505 ft 382 kts 157°